| time (UTC) | temp C | wind direction | speed KPH | gust KPH | rain 1hr cm | rain 24hr cm | rain mn cm | humidity % | barometer mb |
| 20260505101544 | 14 | 0 | 0.0 | 3.2 | 0.20 | 0.20 | 0.20 | 89 | 1009.6 |
| 20260505100037 | 14 | 0 | 0.0 | 8.0 | 0.13 | 0.13 | 0.13 | 87 | 1010.1 |
| 20260505094540 | 15 | 319 | 4.8 | 14.5 | 0.05 | 0.05 | 0.05 | 83 | 1010.0 |
| 20260505093040 | 16 | 316 | 1.6 | 8.0 | 0.03 | 0.03 | 0.03 | 77 | 1009.6 |
| 20260505091537 | 17 | 214 | 0.0 | 6.4 | 0.00 | 0.00 | 0.00 | 69 | 1008.8 |
| 20260505090047 | 17 | 218 | 0.0 | 9.7 | 0.00 | 0.00 | 0.00 | 66 | 1008.4 |
| 20260505084550 | 17 | 213 | 4.8 | 11.3 | 0.00 | 0.00 | 0.00 | 65 | 1008.1 |
| 20260505083044 | 18 | 213 | 3.2 | 12.9 | 0.00 | 0.00 | 0.00 | 64 | 1007.9 |
| 20260505081541 | 18 | 201 | 3.2 | 12.9 | 0.00 | 0.00 | 0.00 | 64 | 1007.6 |
| 20260505080041 | 18 | 207 | 3.2 | 17.7 | 0.00 | 0.00 | 0.00 | 63 | 1007.5 |
| 20260505074537 | 18 | 217 | 1.6 | 16.1 | 0.00 | 0.00 | 0.00 | 63 | 1007.7 |
| 20260505073042 | 18 | 180 | 3.2 | 17.7 | 0.00 | 0.00 | 0.00 | 62 | 1007.1 |
| 20260505071534 | 18 | 180 | 6.4 | 19.3 | 0.00 | 0.00 | 0.00 | 61 | 1006.9 |
| 20260505070050 | 18 | 178 | 4.8 | 24.1 | 0.00 | 0.00 | 0.00 | 61 | 1007.1 |
| 20260505064536 | 19 | 200 | 9.7 | 17.7 | 0.00 | 0.00 | 0.00 | 61 | 1007.1 |
| 20260505063035 | 19 | 188 | 6.4 | 24.1 | 0.00 | 0.00 | 0.00 | 61 | 1007.1 |
| 20260505061540 | 19 | 194 | 8.0 | 22.5 | 0.00 | 0.00 | 0.00 | 60 | 1007.2 |
| 20260505060035 | 19 | 181 | 8.0 | 19.3 | 0.00 | 0.00 | 0.00 | 60 | 1006.9 |
| 20260505054539 | 19 | 210 | 9.7 | 22.5 | 0.00 | 0.00 | 0.00 | 60 | 1006.7 |
| 20260505053036 | 19 | 198 | 8.0 | 25.7 | 0.00 | 0.00 | 0.00 | 60 | 1006.6 |
| 20260505051534 | 20 | 165 | 4.8 | 22.5 | 0.00 | 0.00 | 0.00 | 60 | 1006.6 |
| 20260505041551 | 20 | 133 | 8.0 | 24.1 | 0.00 | 0.00 | 0.00 | 59 | 1007.0 |
| 20260505040048 | 20 | 164 | 6.4 | 24.1 | 0.00 | 0.00 | 0.00 | 59 | 1007.1 |
| 20260505034535 | 20 | 140 | 6.4 | 16.1 | 0.00 | 0.00 | 0.00 | 60 | 1007.2 |
| 20260505033035 | 20 | 126 | 6.4 | 22.5 | 0.00 | 0.00 | 0.00 | 60 | 1007.1 |
| 20260505031541 | 20 | 200 | 8.0 | 24.1 | 0.00 | 0.00 | 0.00 | 60 | 1007.1 |
| 20260505030041 | 20 | 225 | 6.4 | 16.1 | 0.00 | 0.00 | 0.00 | 61 | 1007.0 |
| 20260505024547 | 20 | 217 | 4.8 | 16.1 | 0.00 | 0.00 | 0.00 | 60 | 1006.8 |
| 20260505023038 | 20 | 182 | 6.4 | 17.7 | 0.00 | 0.00 | 0.00 | 60 | 1006.7 |
| 20260505021535 | 20 | 226 | 4.8 | 14.5 | 0.00 | 0.00 | 0.00 | 60 | 1006.5 |
| 20260505020041 | 21 | 186 | 3.2 | 20.9 | 0.00 | 0.00 | 0.00 | 60 | 1006.2 |
| 20260505014600 | 21 | 144 | 3.2 | 16.1 | 0.00 | 0.00 | 0.00 | 60 | 1006.0 |
| 20260505013041 | 21 | 144 | 3.2 | 11.3 | 0.00 | 0.00 | 0.00 | 60 | 1005.9 |
| 20260505011536 | 21 | 208 | 3.2 | 12.9 | 0.00 | 0.00 | 0.00 | 59 | 1005.8 |
| 20260505010035 | 21 | 182 | 4.8 | 17.7 | 0.00 | 0.00 | 0.00 | 58 | 1005.8 |
| 20260505004539 | 21 | 125 | 4.8 | 12.9 | 0.00 | 0.00 | 0.00 | 58 | 1005.8 |
| 20260505003035 | 22 | 141 | 3.2 | 14.5 | 0.00 | 0.00 | 0.00 | 57 | 1005.7 |
| 20260505001535 | 22 | 138 | 4.8 | 14.5 | 0.00 | 0.00 | 0.00 | 55 | 1005.8 |
| 20260505000053 | 22 | 173 | 4.8 | 20.9 | 0.00 | 0.00 | 0.00 | 54 | 1005.9 |
| 20260504234545 | 22 | 155 | 4.8 | 17.7 | 0.00 | 0.00 | 0.00 | 53 | 1006.1 |
| 20260504233052 | 22 | 184 | 4.8 | 19.3 | 0.00 | 0.00 | 0.00 | 53 | 1006.4 |
| 20260504231537 | 23 | 186 | 4.8 | 17.7 | 0.00 | 0.00 | 0.00 | 51 | 1006.6 |
| 20260504230037 | 23 | 144 | 6.4 | 22.5 | 0.00 | 0.00 | 0.00 | 50 | 1006.8 |
| 20260504224542 | 24 | 217 | 6.4 | 16.1 | 0.00 | 0.00 | 0.00 | 47 | 1006.8 |
| 20260504223056 | 24 | 198 | 6.4 | 25.7 | 0.00 | 0.00 | 0.00 | 49 | 1006.8 |
| 20260504221538 | 24 | 130 | 3.2 | 24.1 | 0.00 | 0.00 | 0.00 | 51 | 1006.8 |
| 20260504220035 | 23 | 205 | 1.6 | 6.4 | 0.00 | 0.00 | 0.00 | 55 | 1006.8 |
| 20260504214540 | 23 | 190 | 0.0 | 8.0 | 0.00 | 0.00 | 0.00 | 55 | 1007.1 |
| 20260504213053 | 23 | 204 | 4.8 | 14.5 | 0.00 | 0.00 | 0.00 | 54 | 1007.2 |
| 20260504211540 | 23 | 153 | 3.2 | 11.3 | 0.00 | 0.00 | 0.00 | 52 | 1007.5 |
| 20260504210039 | 23 | 321 | 0.0 | 12.9 | 0.00 | 0.00 | 0.00 | 51 | 1007.7 |
| 20260504204543 | 25 | 205 | 3.2 | 11.3 | 0.00 | 0.00 | 0.00 | 50 | 1007.7 |
| 20260504203041 | 24 | 0 | 3.2 | 14.5 | 0.00 | 0.00 | 0.00 | 50 | 1008.0 |
| 20260504201535 | 23 | 186 | 3.2 | 12.9 | 0.00 | 0.00 | 0.00 | 54 | 1008.1 |
| 20260504200043 | 23 | 272 | 3.2 | 20.9 | 0.00 | 0.00 | 0.00 | 56 | 1008.3 |
| 20260504194534 | 23 | 173 | 3.2 | 16.1 | 0.00 | 0.00 | 0.00 | 55 | 1008.5 |
| 20260504193041 | 23 | 280 | 4.8 | 16.1 | 0.00 | 0.00 | 0.00 | 54 | 1008.8 |
| 20260504191536 | 22 | 0 | 3.2 | 12.9 | 0.00 | 0.00 | 0.00 | 59 | 1009.0 |
| 20260504190037 | 22 | 211 | 3.2 | 11.3 | 0.00 | 0.00 | 0.00 | 61 | 1009.1 |
| 20260504184536 | 21 | 248 | 4.8 | 12.9 | 0.00 | 0.00 | 0.00 | 64 | 1009.3 |
| 20260504183034 | 21 | 155 | 3.2 | 17.7 | 0.00 | 0.00 | 0.00 | 64 | 1009.4 |
| 20260504181542 | 20 | 249 | 1.6 | 19.3 | 0.00 | 0.00 | 0.00 | 65 | 1009.3 |
| 20260504180042 | 20 | 201 | 6.4 | 17.7 | 0.00 | 0.00 | 0.00 | 65 | 1009.2 |
| 20260504174536 | 19 | 193 | 12.9 | 24.1 | 0.00 | 0.00 | 0.00 | 63 | 1008.9 |
| 20260504173035 | 20 | 192 | 9.7 | 30.6 | 0.00 | 0.00 | 0.00 | 63 | 1008.9 |
| 20260504171537 | 20 | 201 | 6.4 | 24.1 | 0.00 | 0.00 | 0.00 | 66 | 1008.9 |